Location: Newark
(43.5831°N, 21.3381°E)
Time: 19:06:17
(UTC+00:00)

Envisat - Pass Details

Date: 20 December 2019
Orbit: 764 x 766 km, 98.1° (Epoch: 28 January)

Event Time Altitude Azimuth Distance (km) Brightness Sun altitude
Rises 16:23:36 0° 164° (SSE) 3,219 6.3 -14.4°
Reaches altitude 10° 16:25:54 10° 164° (SSE) 2,297 5.5 -14.8°
Maximum altitude 16:30:58 88° 74° (ENE) 773 2.9 -15.7°
Drops below altitude 10° 16:36:05 10° 347° (NNW) 2,313 5.4 -16.6°
Sets 16:38:24 0° 348° (NNW) 3,244 6.2 -17.0°
